EW6089 Weather Reports


time (UTC)temp
F
wind
direction
speed
knots
gust
knots
rain 1hr
in
rain 24hr
in
rain mn
in
humidity
%
barometer
mb
20260509163016 57 0.0 0.9 0.00 0.00 0.00 76 1021.8
20260509162036 56 0.0 0.0 0.00 0.00 0.00 79 1021.9
20260509161016 55 0.0 0.0 0.00 0.00 0.00 80 1022.2
20260509160015 54 0.0 0.9 0.00 0.00 0.00 81 1022.2
20260509155016 54 0.0 0.9 0.00 0.00 0.00 84 1022.3
20260509154016 53 0.0 0.9 0.00 0.00 0.00 85 1022.3
20260509153015 52 0.0 0.0 0.00 0.00 0.00 87 1022.4
20260509152015 51 0.0 0.0 0.00 0.00 0.00 90 1022.5
20260509151016 49 0.0 0.0 0.00 0.00 0.00 94 1022.6
20260509150017 49 0.0 0.0 0.00 0.00 0.00 95 1022.5
20260509145017 47 0.0 0.0 0.00 0.00 0.00 96 1022.8
20260509144017 46 0.0 0.0 0.00 0.00 0.00 96 1022.8
20260509143036 46 0.0 0.0 0.00 0.00 0.00 96 1022.9
20260509142015 45 0.0 0.0 0.00 0.00 0.00 96 1023.0
20260509141016 45 0.0 0.0 0.00 0.00 0.00 95 1023.0
20260509140015 44 0.0 0.0 0.00 0.00 0.00 95 1023.1
20260509135016 44 0.0 0.0 0.00 0.00 0.00 95 1023.1
20260509134016 44 0.0 0.0 0.00 0.00 0.00 95 1023.0
20260509133015 44 0.0 0.0 0.00 0.00 0.00 95 1023.0
20260509132015 44 0.0 0.0 0.00 0.00 0.00 95 1023.0
20260509131015 44 0.0 0.0 0.00 0.00 0.00 94 1022.9
20260509130015 44 0.0 0.0 0.00 0.00 0.00 94 1022.9
20260509125015 44 0.0 0.0 0.00 0.00 0.00 94 1022.8
20260509124015 44 0.0 0.0 0.00 0.00 0.00 94 1022.8
20260509123015 44 0.0 0.0 0.00 0.00 0.00 94 1022.9
20260509122017 44 0.0 0.0 0.00 0.00 0.00 94 1022.8
20260509121038 44 0.0 0.0 0.00 0.00 0.00 94 1022.8
20260509120016 44 0.0 0.0 0.00 0.00 0.00 94 1022.9
20260509115017 45 0.0 0.0 0.00 0.00 0.00 94 1023.0
20260509114015 45 0.0 0.0 0.00 0.00 0.00 93 1023.0
20260509113037 45 0.0 0.0 0.00 0.00 0.00 93 1023.0
20260509112015 45 0.0 0.0 0.00 0.00 0.00 93 1023.0
20260509111017 45 0.0 0.0 0.00 0.00 0.00 93 1023.1
20260509110017 46 0.0 0.0 0.00 0.00 0.00 92 1023.0
20260509105017 46 0.0 0.0 0.00 0.00 0.00 92 1023.1
20260509104017 46 0.0 0.0 0.00 0.00 0.00 92 1023.2
20260509103017 46 0.0 0.0 0.00 0.00 0.00 92 1023.3
20260509102017 47 0.0 0.0 0.00 0.00 0.00 92 1023.4
20260509101017 47 0.0 0.0 0.00 0.00 0.00 91 1023.3
20260509100017 47 0.0 0.0 0.00 0.00 0.00 91 1023.4
20260509095017 47 0.0 0.0 0.00 0.00 0.00 91 1023.4
20260509094017 47 0.0 0.0 0.00 0.00 0.00 91 1023.5
20260509093017 48 0.0 0.0 0.00 0.00 0.00 91 1023.5
20260509092037 48 0.0 0.0 0.00 0.00 0.00 91 1023.6
20260509091017 48 0.0 0.0 0.00 0.00 0.00 91 1023.6
20260509090017 48 0.0 0.0 0.00 0.00 0.00 91 1023.6
20260509085017 48 0.0 0.0 0.00 0.00 0.00 90 1023.6
20260509084017 48 0.0 0.0 0.00 0.00 0.00 90 1023.6
20260509083017 48 0.0 0.0 0.00 0.00 0.00 90 1023.6
20260509082017 48 0.0 0.0 0.00 0.00 0.00 90 1023.6
20260509081017 48 0.0 0.0 0.00 0.00 0.00 89 1023.4
20260509080017 48 0.0 0.0 0.00 0.00 0.00 89 1023.4
20260509075017 49 0.0 0.0 0.00 0.00 0.00 89 1023.4
20260509074017 49 0.0 0.0 0.00 0.00 0.00 88 1023.4
20260509073017 49 0.0 0.0 0.00 0.00 0.00 88 1023.3
20260509072017 49 0.0 0.0 0.00 0.00 0.00 88 1023.3
20260509071037 49 0.0 0.0 0.00 0.00 0.00 87 1023.2
20260509070017 49 0.0 0.0 0.00 0.00 0.00 87 1023.2
20260509065037 49 0.0 0.0 0.00 0.00 0.00 87 1023.1
20260509064017 49 0.0 0.0 0.00 0.00 0.00 87 1023.1
20260509063017 49 0.0 0.0 0.00 0.00 0.00 86 1023.1
20260509062017 50 0.0 0.0 0.00 0.00 0.00 85 1023.0
20260509061017 50 0.0 0.0 0.00 0.00 0.00 85 1022.9
20260509060017 50 0.0 0.0 0.00 0.00 0.00 84 1022.8
20260509055037 50 0.0 0.0 0.00 0.00 0.00 84 1022.8
20260509054017 51 0.0 0.0 0.00 0.00 0.00 83 1022.8
20260509053017 51 0.0 0.0 0.00 0.00 0.00 83 1022.8
20260509052017 51 0.0 0.0 0.00 0.00 0.00 82 1022.8
20260509051017 51 0.0 0.0 0.00 0.00 0.00 82 1022.7
20260509050016 52 0.0 0.0 0.00 0.00 0.00 81 1022.7
20260509045017 52 0.0 0.0 0.00 0.00 0.00 80 1022.7
20260509044037 52 0.0 0.0 0.00 0.00 0.00 80 1022.6
20260509043016 53 0.0 0.0 0.00 0.00 0.00 80 1022.6
20260509042017 53 0.0 0.0 0.00 0.00 0.00 79 1022.6
20260509041037 53 0.0 0.0 0.00 0.00 0.00 78 1022.4
20260509040017 54 0.0 0.0 0.00 0.00 0.00 78 1022.3
20260509035016 54 0.0 0.0 0.00 0.00 0.00 75 1022.2
20260509034016 55 0.0 0.0 0.00 0.00 0.00 75 1022.1
20260509033016 56 0.0 0.0 0.00 0.00 0.00 75 1022.0
20260509032017 56 0.0 0.0 0.00 0.00 0.00 73 1022.0
20260509031017 57 0.0 0.0 0.00 0.00 0.00 71 1021.9
20260509030017 58 0.0 0.0 0.00 0.00 0.00 71 1021.9
20260509025017 58 0.0 0.0 0.00 0.00 0.00 69 1021.9
20260509024017 59 0.0 0.0 0.00 0.00 0.00 65 1021.8
20260509023016 59 0.0 0.0 0.00 0.00 0.00 64 1021.7
20260509022016 59 0.0 0.9 0.00 0.00 0.00 63 1021.7
20260509021016 60 0.0 0.9 0.00 0.00 0.00 62 1021.6
20260509020016 60 0.0 0.9 0.00 0.00 0.00 60 1021.6
20260509015016 60 0.0 0.9 0.00 0.00 0.00 60 1021.7
20260509014016 61 0.0 0.9 0.00 0.00 0.00 60 1021.5
20260509013016 61 0.0 2.6 0.00 0.00 0.00 60 1021.6
20260509012016 61 135 0.9 2.6 0.00 0.00 0.00 61 1021.7
20260509011016 61 68 0.9 5.2 0.00 0.00 0.00 58 1021.6
20260509010016 61 113 0.9 5.2 0.00 0.00 0.00 56 1021.6
20260509005016 61 23 0.9 3.5 0.00 0.00 0.00 56 1021.7
20260509004016 61 45 0.9 5.2 0.00 0.00 0.00 57 1021.7
20260509003016 61 0.0 0.9 0.00 0.00 0.00 57 1021.7
20260509002016 61 0.0 1.7 0.00 0.00 0.00 57 1021.7
20260509001038 61 0.0 0.9 0.00 0.00 0.00 57 1021.7
20260509000016 61 135 0.9 2.6 0.00 0.00 0.00 56 1021.7
20260508235016 61 135 0.9 2.6 0.00 0.00 0.00 57 1021.6
20260508234016 61 68 0.9 3.5 0.00 0.00 0.00 57 1021.8
20260508233016 61 45 0.9 3.5 0.00 0.00 0.00 59 1021.7
20260508232016 61 0.0 2.6 0.00 0.00 0.00 59 1021.8
20260508231016 60 0.0 1.7 0.00 0.00 0.00 61 1021.9
20260508230016 60 135 0.9 4.3 0.00 0.00 0.00 60 1021.8
20260508225017 59 0.0 4.3 0.00 0.00 0.00 60 1021.8
20260508224016 59 0.0 1.7 0.00 0.00 0.00 62 1021.9
20260508223056 60 45 0.9 3.5 0.00 0.00 0.00 60 1021.7
20260508222016 60 158 0.9 7.0 0.00 0.00 0.00 61 1021.9
20260508221016 59 225 0.9 3.5 0.00 0.00 0.00 60 1021.6
20260508220037 59 0.0 1.7 0.00 0.00 0.00 63 1021.7
20260508215016 58 0.0 1.7 0.00 0.00 0.00 65 1021.8
20260508214017 58 0.0 0.9 0.00 0.00 0.00 64 1021.9
20260508213016 57 0.0 2.6 0.00 0.00 0.00 66 1021.8
20260508212036 57 158 0.9 2.6 0.00 0.00 0.00 67 1021.9
20260508211016 56 0.0 2.6 0.00 0.00 0.00 69 1022.0
20260508210036 56 0.0 1.7 0.00 0.00 0.00 69 1021.9
20260508205036 56 0.0 0.9 0.00 0.00 0.00 71 1021.9
20260508204016 56 0.0 0.9 0.00 0.00 0.00 70 1021.8
20260508203016 56 0.0 0.9 0.00 0.00 0.00 71 1021.8
20260508202016 55 0.0 2.6 0.00 0.00 0.00 72 1021.7
20260508201016 55 0.0 1.7 0.00 0.00 0.00 74 1021.7
20260508200016 55 0.0 1.7 0.00 0.00 0.00 75 1021.7
20260508195016 55 0.0 0.9 0.00 0.00 0.00 74 1021.7
20260508194016 54 0.0 1.7 0.00 0.00 0.00 76 1021.6
20260508193036 54 0.0 0.0 0.00 0.00 0.00 77 1021.6
20260508192016 54 0.0 0.9 0.00 0.00 0.00 77 1021.6
20260508191036 54 0.0 0.9 0.00 0.00 0.00 76 1021.6
20260508190015 54 0.0 3.5 0.00 0.00 0.00 76 1021.5
20260508185016 54 0.0 1.7 0.00 0.00 0.00 75 1021.5
20260508184035 54 0.0 2.6 0.00 0.00 0.00 77 1021.4
20260508183015 54 0.0 1.7 0.00 0.00 0.00 77 1021.2
20260508182015 53 0.0 2.6 0.00 0.00 0.00 77 1021.2
20260508181015 53 0.0 2.6 0.00 0.00 0.00 78 1021.3
20260508180015 53 0.0 0.0 0.00 0.00 0.00 78 1021.2
20260508175015 53 0.0 1.7 0.00 0.00 0.00 78 1021.0
20260508174017 53 0.0 1.7 0.00 0.00 0.00 78 1020.7
20260508173016 53 0.0 2.6 0.00 0.00 0.00 79 1020.5
20260508172016 53 0.0 0.9 0.00 0.00 0.00 82 1020.4
20260508171015 53 0.0 0.9 0.00 0.00 0.00 82 1020.2
20260508170016 52 0.0 0.9 0.00 0.00 0.00 82 1020.2
20260508165016 52 113 0.9 2.6 0.00 0.00 0.00 81 1020.0
20260508164015 52 0.0 0.9 0.00 0.00 0.00 82 1020.0